ARG1472 SABE-SASJ

Flight info

Callsign ARG1472
Flight time 2h 6m
Altitude 38000
Route BIVAM4B BIVAM UW8 ERE UT672 DADMI UT677 ILPAR
Aircraft B738/M-SDE2E3FGHIRWXY/LB1

Departure

Time 2026-04-26 18:03
Airport Aeroparque Jorge Newbery (SABE)

Arrival

Time 2026-04-26 20:09
Airport Gobernador Horacio Guzman International Airport (SASJ)
Time Latitude Longitude Altitude Speed Heading
2026-04-26 17:32 -34.55706 -58.41443 53 ft 0 kts 15°
2026-04-26 17:52 -34.55710 -58.41445 26 ft 2 kts 14°
2026-04-26 17:52 -34.55727 -58.41448 31 ft 2 kts
2026-04-26 17:52 -34.55743 -58.41448 30 ft 2 kts 336°
2026-04-26 17:53 -34.55755 -58.41435 32 ft 2 kts 298°
2026-04-26 17:53 -34.55757 -58.41430 31 ft 0 kts 297°
2026-04-26 17:57 -34.55748 -58.41449 29 ft 6 kts 302°
2026-04-26 17:57 -34.55721 -58.41515 29 ft 12 kts 279°
2026-04-26 17:57 -34.55776 -58.41588 29 ft 13 kts 205°
2026-04-26 17:58 -34.55922 -58.41305 30 ft 17 kts 118°
2026-04-26 17:59 -34.56086 -58.41032 26 ft 20 kts 127°
2026-04-26 17:59 -34.56160 -58.40897 26 ft 16 kts 102°
2026-04-26 17:59 -34.56195 -58.40778 26 ft 15 kts 126°
2026-04-26 17:59 -34.56253 -58.40674 26 ft 15 kts 124°
2026-04-26 18:00 -34.56309 -58.40573 27 ft 14 kts 124°
2026-04-26 18:00 -34.56372 -58.40486 28 ft 14 kts 139°
2026-04-26 18:00 -34.56441 -58.40414 26 ft 12 kts 139°
2026-04-26 18:00 -34.56510 -58.40360 27 ft 12 kts 183°
2026-04-26 18:01 -34.56524 -58.40363 28 ft 0 kts 193°
2026-04-26 18:01 -34.56525 -58.40364 28 ft 2 kts 198°
2026-04-26 18:01 -34.56561 -58.40400 26 ft 11 kts 243°
2026-04-26 18:02 -34.56524 -58.40497 24 ft 17 kts 304°
2026-04-26 18:02 -34.56448 -58.40634 26 ft 51 kts 303°
2026-04-26 18:02 -34.55948 -58.41533 27 ft 139 kts 304°
2026-04-26 18:02 -34.55333 -58.42626 389 ft 164 kts 301°
2026-04-26 18:03 -34.54648 -58.43774 1208 ft 171 kts 308°
2026-04-26 18:03 -34.53540 -58.44406 2116 ft 192 kts 346°
2026-04-26 18:03 -34.52162 -58.44214 2948 ft 208 kts 11°
2026-04-26 18:03 -34.50798 -58.43542 3755 ft 218 kts 19°
2026-04-26 18:04 -34.49443 -58.42651 4530 ft 220 kts 24°
2026-04-26 18:04 -34.48138 -58.41610 5159 ft 233 kts 31°
2026-04-26 18:04 -34.46807 -58.40459 5741 ft 237 kts 28°
2026-04-26 18:05 -34.43926 -58.38177 6657 ft 259 kts 27°
2026-04-26 18:05 -34.42351 -58.36947 6931 ft 278 kts 26°
2026-04-26 18:05 -34.40575 -58.35931 7356 ft 289 kts 10°
2026-04-26 18:05 -34.38610 -58.35575 8047 ft 284 kts 350°
2026-04-26 18:06 -34.36717 -58.35973 8907 ft 270 kts 330°
2026-04-26 18:06 -34.35066 -58.36965 9762 ft 261 kts 316°
2026-04-26 18:06 -34.33617 -58.38247 10656 ft 254 kts 311°
2026-04-26 18:06 -34.32276 -58.39617 11528 ft 251 kts 307°
2026-04-26 18:07 -34.30883 -58.40940 12110 ft 269 kts 314°
2026-04-26 18:07 -34.29361 -58.42219 12840 ft 263 kts 312°
2026-04-26 18:07 -34.27883 -58.43519 13315 ft 264 kts 311°
2026-04-26 18:07 -34.26906 -58.44400 13338 ft 267 kts 310°
2026-04-26 18:08 -34.24827 -58.46273 13538 ft 294 kts 312°
2026-04-26 18:08 -34.23100 -58.47766 13720 ft 317 kts 314°
2026-04-26 18:08 -34.21235 -58.49310 14087 ft 331 kts 315°
2026-04-26 18:08 -34.19309 -58.50865 14743 ft 334 kts 315°
2026-04-26 18:09 -34.17398 -58.52398 15498 ft 334 kts 314°
2026-04-26 18:09 -34.15546 -58.54051 16213 ft 323 kts 304°
2026-04-26 18:09 -34.14259 -58.56177 16908 ft 309 kts 289°
2026-04-26 18:09 -34.13450 -58.58550 17632 ft 304 kts 281°
2026-04-26 18:10 -34.13014 -58.61027 18290 ft 301 kts 271°
2026-04-26 18:10 -34.13103 -58.63546 18857 ft 302 kts 263°
2026-04-26 18:10 -34.13385 -58.66069 19421 ft 305 kts 262°
2026-04-26 18:10 -34.13690 -58.68611 19968 ft 307 kts 262°
2026-04-26 18:11 -34.13986 -58.71142 20504 ft 310 kts 262°
2026-04-26 18:11 -34.14282 -58.73728 21046 ft 312 kts 262°
2026-04-26 18:11 -34.14322 -58.76355 21531 ft 318 kts 275°
2026-04-26 18:11 -34.13735 -58.78968 22056 ft 328 kts 285°
2026-04-26 18:12 -34.12723 -58.81474 22558 ft 338 kts 292°
2026-04-26 18:12 -34.11319 -58.83813 23014 ft 354 kts 303°
2026-04-26 18:12 -34.09307 -58.85706 23472 ft 376 kts 314°
2026-04-26 18:12 -34.07061 -58.87377 23865 ft 382 kts 316°
2026-04-26 18:13 -34.04796 -58.88995 24236 ft 385 kts 317°
2026-04-26 18:13 -34.02486 -58.90645 24603 ft 387 kts 316°
2026-04-26 18:13 -34.00167 -58.92322 24978 ft 390 kts 316°
2026-04-26 18:13 -33.98597 -58.93467 25226 ft 391 kts 316°
2026-04-26 18:14 -33.95507 -58.95727 25700 ft 394 kts 316°
2026-04-26 18:14 -33.93155 -58.97449 26048 ft 397 kts 316°
2026-04-26 18:14 -33.90788 -58.99182 26376 ft 399 kts 317°
2026-04-26 18:14 -33.88406 -59.00924 26711 ft 402 kts 317°
2026-04-26 18:15 -33.86043 -59.02650 27036 ft 404 kts 317°
2026-04-26 18:15 -33.83635 -59.04407 27359 ft 406 kts 317°
2026-04-26 18:15 -33.81212 -59.06174 27680 ft 408 kts 317°
2026-04-26 18:15 -33.78777 -59.07948 27999 ft 410 kts 317°
2026-04-26 18:16 -33.76330 -59.09730 28310 ft 412 kts 317°
2026-04-26 18:16 -33.71399 -59.13317 28897 ft 416 kts 318°
2026-04-26 18:16 -33.68919 -59.15118 29220 ft 417 kts 318°
2026-04-26 18:17 -33.66437 -59.16918 29674 ft 415 kts 318°
2026-04-26 18:17 -33.63970 -59.18703 30149 ft 412 kts 318°
2026-04-26 18:17 -33.61552 -59.20452 30535 ft 410 kts 318°
2026-04-26 18:17 -33.59118 -59.22215 30915 ft 408 kts 318°
2026-04-26 18:18 -33.56690 -59.23972 31299 ft 406 kts 318°
2026-04-26 18:18 -33.54278 -59.25717 31686 ft 404 kts 317°
2026-04-26 18:18 -33.51881 -59.27451 32061 ft 402 kts 317°
2026-04-26 18:18 -33.49491 -59.29180 32410 ft 400 kts 317°
2026-04-26 18:19 -33.47111 -59.30900 32756 ft 399 kts 317°
2026-04-26 18:19 -33.44738 -59.32614 33114 ft 397 kts 317°
2026-04-26 18:19 -33.42410 -59.34293 33462 ft 396 kts 317°
2026-04-26 18:19 -33.40055 -59.35992 33797 ft 394 kts 317°
2026-04-26 18:20 -33.37707 -59.37684 34092 ft 393 kts 317°
2026-04-26 18:20 -33.35367 -59.39370 34325 ft 393 kts 317°
2026-04-26 18:20 -33.33023 -59.41060 34516 ft 394 kts 317°
2026-04-26 18:20 -33.32231 -59.41630 34583 ft 394 kts 317°
2026-04-26 18:21 -33.28325 -59.44441 34939 ft 394 kts 317°
2026-04-26 18:21 -33.25974 -59.46129 35161 ft 394 kts 317°
2026-04-26 18:21 -33.23657 -59.47792 35361 ft 394 kts 317°
2026-04-26 18:21 -33.21306 -59.49479 35594 ft 394 kts 317°
2026-04-26 18:22 -33.18956 -59.51164 35792 ft 394 kts 317°
2026-04-26 18:22 -33.16609 -59.52846 35997 ft 394 kts 317°
2026-04-26 18:22 -33.14261 -59.54526 36206 ft 393 kts 317°
2026-04-26 18:22 -33.11914 -59.56206 36408 ft 393 kts 317°
2026-04-26 18:23 -33.09570 -59.57882 36614 ft 393 kts 317°
2026-04-26 18:23 -33.07223 -59.59560 36805 ft 393 kts 317°
2026-04-26 18:23 -33.04877 -59.61235 37000 ft 393 kts 317°
2026-04-26 18:23 -33.02565 -59.62885 37206 ft 392 kts 317°
2026-04-26 18:24 -33.00224 -59.64555 37412 ft 392 kts 317°
2026-04-26 18:24 -32.97886 -59.66222 37582 ft 392 kts 317°
2026-04-26 18:24 -32.95546 -59.67890 37780 ft 392 kts 317°
2026-04-26 18:24 -32.93211 -59.69552 37955 ft 391 kts 317°
2026-04-26 18:25 -32.88512 -59.72898 37959 ft 394 kts 317°
2026-04-26 18:25 -32.83857 -59.76202 37959 ft 390 kts 317°
2026-04-26 18:26 -32.79213 -59.79495 37963 ft 387 kts 317°
2026-04-26 18:26 -32.74598 -59.82767 37963 ft 385 kts 317°
2026-04-26 18:27 -32.70004 -59.86021 37973 ft 384 kts 317°
2026-04-26 18:27 -32.65416 -59.89268 37978 ft 384 kts 317°
2026-04-26 18:28 -32.60844 -59.92498 37984 ft 386 kts 317°
2026-04-26 18:28 -32.56220 -59.95762 37988 ft 388 kts 317°
2026-04-26 18:29 -32.51576 -59.99038 37981 ft 390 kts 317°
2026-04-26 18:29 -32.46904 -60.02330 37987 ft 392 kts 317°
2026-04-26 18:30 -32.42241 -60.05611 37988 ft 394 kts 317°
2026-04-26 18:30 -32.37522 -60.08928 37988 ft 395 kts 317°
2026-04-26 18:31 -32.32792 -60.12247 37991 ft 396 kts 318°
2026-04-26 18:31 -32.28057 -60.15566 37990 ft 396 kts 318°
2026-04-26 18:32 -32.23323 -60.18881 37989 ft 395 kts 318°
2026-04-26 18:32 -32.18628 -60.22164 37987 ft 395 kts 318°
2026-04-26 18:33 -32.13907 -60.25462 37990 ft 393 kts 318°
2026-04-26 18:33 -32.09204 -60.28743 37992 ft 392 kts 318°
2026-04-26 18:34 -32.04518 -60.32009 37994 ft 391 kts 318°
2026-04-26 18:34 -31.99876 -60.35240 37999 ft 389 kts 318°
2026-04-26 18:35 -31.95221 -60.38478 38011 ft 388 kts 318°
2026-04-26 18:35 -31.90575 -60.41705 38023 ft 387 kts 318°
2026-04-26 18:36 -31.85939 -60.44924 38021 ft 387 kts 318°
2026-04-26 18:36 -31.81334 -60.48114 38021 ft 387 kts 318°
2026-04-26 18:37 -31.76790 -60.51448 38020 ft 383 kts 315°
2026-04-26 18:37 -31.72333 -60.54893 38021 ft 384 kts 315°
2026-04-26 18:38 -31.67863 -60.58335 38018 ft 385 kts 315°
2026-04-26 18:38 -31.63406 -60.61741 38017 ft 385 kts 316°
2026-04-26 18:39 -31.58906 -60.65164 38015 ft 386 kts 316°
2026-04-26 18:39 -31.54398 -60.68587 38017 ft 386 kts 316°
2026-04-26 18:40 -31.49890 -60.72005 38002 ft 386 kts 316°
2026-04-26 18:40 -31.45413 -60.75397 38013 ft 386 kts 316°
2026-04-26 18:41 -31.40904 -60.78808 38012 ft 386 kts 316°
2026-04-26 18:41 -31.36393 -60.82218 38010 ft 386 kts 316°
2026-04-26 18:42 -31.31887 -60.85620 38014 ft 385 kts 316°
2026-04-26 18:42 -31.27383 -60.89016 38016 ft 385 kts 316°
2026-04-26 18:43 -31.22911 -60.92384 38012 ft 385 kts 316°
2026-04-26 18:43 -31.18413 -60.95768 38014 ft 384 kts 316°
2026-04-26 18:44 -31.13923 -60.99143 38015 ft 384 kts 316°
2026-04-26 18:44 -31.09438 -61.02511 38017 ft 383 kts 315°
2026-04-26 18:45 -31.04988 -61.05848 38018 ft 383 kts 315°
2026-04-26 18:45 -31.00508 -61.09198 38017 ft 382 kts 316°
2026-04-26 18:46 -30.96029 -61.12538 38024 ft 382 kts 316°
2026-04-26 18:46 -30.91551 -61.15874 38017 ft 382 kts 315°
2026-04-26 18:47 -30.87103 -61.19185 38017 ft 382 kts 315°
2026-04-26 18:47 -30.82625 -61.22515 38018 ft 382 kts 315°
2026-04-26 18:48 -30.78142 -61.25846 38017 ft 382 kts 315°
2026-04-26 18:48 -30.73660 -61.29172 38018 ft 382 kts 315°
2026-04-26 18:49 -30.69204 -61.32475 38012 ft 382 kts 315°
2026-04-26 18:49 -30.64719 -61.35796 38015 ft 382 kts 315°
2026-04-26 18:50 -30.60231 -61.39115 38018 ft 382 kts 315°
2026-04-26 18:50 -30.55741 -61.42432 38018 ft 382 kts 315°
2026-04-26 18:51 -30.51283 -61.45722 38021 ft 382 kts 315°
2026-04-26 18:51 -30.46796 -61.49030 38021 ft 382 kts 316°
2026-04-26 18:52 -30.42309 -61.52334 38022 ft 382 kts 316°
2026-04-26 18:52 -30.37827 -61.55630 38014 ft 381 kts 316°
2026-04-26 18:53 -30.33348 -61.58921 38015 ft 381 kts 316°
2026-04-26 18:53 -30.28904 -61.62182 38006 ft 381 kts 316°
2026-04-26 18:54 -30.24433 -61.65460 38018 ft 380 kts 316°
2026-04-26 18:54 -30.19967 -61.68731 38017 ft 380 kts 316°
2026-04-26 18:55 -30.15505 -61.71995 38011 ft 379 kts 316°
2026-04-26 18:55 -30.11050 -61.75250 38011 ft 379 kts 316°
2026-04-26 18:56 -30.06625 -61.78481 38009 ft 378 kts 316°
2026-04-26 18:56 -30.02178 -61.81724 38006 ft 378 kts 316°
2026-04-26 18:57 -29.99237 -61.83867 38005 ft 378 kts 316°
2026-04-26 18:57 -29.93327 -61.88170 38006 ft 377 kts 316°
2026-04-26 18:58 -29.88888 -61.91396 38009 ft 377 kts 316°
2026-04-26 18:58 -29.84318 -61.94453 38015 ft 382 kts 319°
2026-04-26 18:59 -29.79617 -61.97332 38006 ft 383 kts 319°
2026-04-26 18:59 -29.74945 -62.00183 38004 ft 382 kts 319°
2026-04-26 19:00 -29.70251 -62.03061 38000 ft 382 kts 319°
2026-04-26 19:00 -29.65562 -62.05943 38001 ft 382 kts 319°
2026-04-26 19:01 -29.60881 -62.08820 37997 ft 382 kts 319°
2026-04-26 19:01 -29.56194 -62.11698 37994 ft 382 kts 319°
2026-04-26 19:02 -29.51542 -62.14552 37993 ft 382 kts 319°
2026-04-26 19:02 -29.48406 -62.16474 37994 ft 382 kts 319°
2026-04-26 19:03 -29.42168 -62.20293 37988 ft 382 kts 319°
2026-04-26 19:03 -29.37480 -62.23159 37984 ft 382 kts 319°
2026-04-26 19:04 -29.32824 -62.26003 37986 ft 382 kts 319°
2026-04-26 19:04 -29.28138 -62.28862 37989 ft 382 kts 319°
2026-04-26 19:05 -29.21097 -62.33153 37985 ft 382 kts 319°
2026-04-26 19:06 -29.16434 -62.35991 37975 ft 382 kts 319°
2026-04-26 19:06 -29.11737 -62.38846 37981 ft 382 kts 319°
2026-04-26 19:07 -29.07039 -62.41700 37981 ft 383 kts 319°
2026-04-26 19:07 -29.02335 -62.44554 37979 ft 383 kts 319°
2026-04-26 19:08 -28.97661 -62.47387 37983 ft 383 kts 319°
2026-04-26 19:08 -28.92951 -62.50239 37982 ft 383 kts 319°
2026-04-26 19:09 -28.89035 -62.52608 37976 ft 384 kts 319°
2026-04-26 19:09 -28.83562 -62.55935 37976 ft 381 kts 317°
2026-04-26 19:10 -28.79294 -62.59316 37974 ft 372 kts 312°
2026-04-26 19:10 -28.75119 -62.62814 37977 ft 373 kts 312°
2026-04-26 19:11 -28.71637 -62.65721 37973 ft 374 kts 313°
2026-04-26 19:11 -28.66752 -62.69780 37980 ft 375 kts 313°
2026-04-26 19:12 -28.62534 -62.73276 37978 ft 375 kts 313°
2026-04-26 19:12 -28.58305 -62.76775 37972 ft 376 kts 313°
2026-04-26 19:13 -28.54783 -62.79686 37971 ft 377 kts 313°
2026-04-26 19:13 -28.50536 -62.83193 37971 ft 378 kts 313°
2026-04-26 19:14 -28.45592 -62.87271 37974 ft 378 kts 313°
2026-04-26 19:14 -28.41328 -62.90784 37972 ft 379 kts 313°
2026-04-26 19:15 -28.37781 -62.93704 37973 ft 379 kts 313°
2026-04-26 19:15 -28.33505 -62.97220 37969 ft 379 kts 313°
2026-04-26 19:16 -28.29227 -63.00734 37967 ft 380 kts 313°
2026-04-26 19:16 -28.24251 -63.04818 37970 ft 380 kts 313°
2026-04-26 19:17 -28.20690 -63.07738 37970 ft 380 kts 313°
2026-04-26 19:17 -28.16401 -63.11251 37967 ft 380 kts 313°
2026-04-26 19:18 -28.12111 -63.14761 37965 ft 381 kts 313°
2026-04-26 19:18 -28.07842 -63.18251 37966 ft 381 kts 313°
2026-04-26 19:19 -28.03541 -63.21763 37965 ft 381 kts 313°
2026-04-26 19:19 -27.99237 -63.25275 37966 ft 382 kts 313°
2026-04-26 19:20 -27.94924 -63.28790 37966 ft 382 kts 313°
2026-04-26 19:20 -27.90632 -63.32284 37964 ft 383 kts 313°
2026-04-26 19:21 -27.86308 -63.35802 37965 ft 383 kts 313°
2026-04-26 19:21 -27.81975 -63.39322 37964 ft 384 kts 313°
2026-04-26 19:22 -27.77637 -63.42843 37968 ft 384 kts 314°
2026-04-26 19:22 -27.73291 -63.46367 37965 ft 385 kts 314°
2026-04-26 19:23 -27.68968 -63.49869 37968 ft 385 kts 314°
2026-04-26 19:23 -27.64611 -63.53396 37962 ft 386 kts 314°
2026-04-26 19:24 -27.60246 -63.56924 37966 ft 386 kts 314°
2026-04-26 19:24 -27.53721 -63.62193 37962 ft 386 kts 314°
2026-04-26 19:25 -27.50059 -63.65147 37958 ft 387 kts 314°
2026-04-26 19:25 -27.44976 -63.69242 37962 ft 387 kts 314°
2026-04-26 19:26 -27.40597 -63.72767 37961 ft 387 kts 314°
2026-04-26 19:26 -27.36218 -63.76287 37960 ft 387 kts 314°
2026-04-26 19:27 -27.31866 -63.79784 37960 ft 387 kts 314°
2026-04-26 19:27 -27.27476 -63.83306 37960 ft 388 kts 314°
2026-04-26 19:28 -27.23084 -63.86828 37961 ft 388 kts 314°
2026-04-26 19:28 -27.18686 -63.90351 37961 ft 388 kts 314°
2026-04-26 19:29 -27.14316 -63.93848 37959 ft 389 kts 314°
2026-04-26 19:29 -27.09908 -63.97371 37960 ft 389 kts 314°
2026-04-26 19:30 -27.05499 -64.00893 37963 ft 389 kts 314°
2026-04-26 19:30 -27.01826 -64.03825 37962 ft 390 kts 315°
2026-04-26 19:31 -26.96687 -64.07921 37964 ft 390 kts 314°
2026-04-26 19:31 -26.92278 -64.11474 37956 ft 390 kts 314°
2026-04-26 19:32 -26.87879 -64.15040 37958 ft 391 kts 314°
2026-04-26 19:32 -26.83475 -64.18607 37963 ft 391 kts 314°
2026-04-26 19:33 -26.79095 -64.22148 37966 ft 391 kts 315°
2026-04-26 19:33 -26.74680 -64.25711 37964 ft 391 kts 315°
2026-04-26 19:34 -26.70260 -64.29275 37967 ft 391 kts 315°
2026-04-26 19:34 -26.65841 -64.32834 37968 ft 392 kts 315°
2026-04-26 19:35 -26.61450 -64.36368 37969 ft 392 kts 315°
2026-04-26 19:35 -26.57024 -64.39926 37968 ft 392 kts 315°
2026-04-26 19:36 -26.53342 -64.42883 37973 ft 392 kts 315°
2026-04-26 19:36 -26.48163 -64.47039 37977 ft 392 kts 315°
2026-04-26 19:37 -26.43730 -64.50593 37975 ft 392 kts 315°
2026-04-26 19:37 -26.39324 -64.54121 37981 ft 392 kts 315°
2026-04-26 19:38 -26.34887 -64.57671 37985 ft 393 kts 315°
2026-04-26 19:38 -26.30449 -64.61219 37988 ft 393 kts 315°
2026-04-26 19:39 -26.26006 -64.64767 37988 ft 393 kts 315°
2026-04-26 19:39 -26.21589 -64.68290 37990 ft 393 kts 316°
2026-04-26 19:40 -26.17138 -64.71838 37985 ft 393 kts 316°
2026-04-26 19:40 -26.12690 -64.75379 37989 ft 393 kts 316°
2026-04-26 19:41 -26.08244 -64.78916 37986 ft 393 kts 316°
2026-04-26 19:41 -26.04549 -64.81853 37993 ft 393 kts 316°
2026-04-26 19:42 -25.99382 -64.85955 37989 ft 392 kts 316°
2026-04-26 19:42 -25.94942 -64.89478 37989 ft 392 kts 316°
2026-04-26 19:43 -25.90457 -64.93039 37492 ft 401 kts 316°
2026-04-26 19:43 -25.88186 -64.94837 36897 ft 400 kts 316°
2026-04-26 19:43 -25.85926 -64.96622 36334 ft 399 kts 316°
2026-04-26 19:44 -25.83697 -64.98384 35816 ft 397 kts 316°
2026-04-26 19:44 -25.81459 -65.00152 35385 ft 393 kts 316°
2026-04-26 19:44 -25.79242 -65.01904 34941 ft 390 kts 316°
2026-04-26 19:44 -25.77041 -65.03643 34508 ft 387 kts 315°
2026-04-26 19:45 -25.74852 -65.05372 34062 ft 385 kts 315°
2026-04-26 19:45 -25.72581 -65.06970 33566 ft 394 kts 326°
2026-04-26 19:45 -25.69902 -65.07864 33111 ft 411 kts 340°
2026-04-26 19:45 -25.67006 -65.08048 32675 ft 426 kts 354°
2026-04-26 19:46 -25.64047 -65.07364 32265 ft 439 kts
2026-04-26 19:46 -25.61163 -65.06379 31829 ft 439 kts
2026-04-26 19:46 -25.58267 -65.05318 31407 ft 437 kts
2026-04-26 19:46 -25.55389 -65.04252 30996 ft 435 kts
2026-04-26 19:47 -25.52525 -65.03206 30555 ft 433 kts
2026-04-26 19:47 -25.50631 -65.02525 30293 ft 431 kts
2026-04-26 19:47 -25.46832 -65.01180 29672 ft 427 kts
2026-04-26 19:47 -25.44009 -65.00192 29224 ft 424 kts
2026-04-26 19:48 -25.41210 -64.99218 28770 ft 420 kts
2026-04-26 19:48 -25.38467 -64.98265 28347 ft 417 kts
2026-04-26 19:48 -25.35713 -64.97309 27934 ft 414 kts
2026-04-26 19:48 -25.32975 -64.96359 27506 ft 411 kts
2026-04-26 19:49 -25.30256 -64.95416 27092 ft 408 kts
2026-04-26 19:49 -25.27557 -64.94479 26684 ft 405 kts
2026-04-26 19:49 -25.24872 -64.93548 26273 ft 403 kts
2026-04-26 19:49 -25.22201 -64.92623 25864 ft 401 kts
2026-04-26 19:50 -25.19546 -64.91703 25448 ft 399 kts
2026-04-26 19:50 -25.16897 -64.90785 25044 ft 398 kts
2026-04-26 19:50 -25.14261 -64.89873 24638 ft 397 kts
2026-04-26 19:50 -25.11654 -64.89041 24236 ft 389 kts
2026-04-26 19:51 -25.09036 -64.89012 23851 ft 368 kts 341°
2026-04-26 19:51 -25.06644 -64.89779 23378 ft 351 kts 326°
2026-04-26 19:51 -25.04511 -64.91025 22958 ft 345 kts 322°
2026-04-26 19:51 -25.02442 -64.92348 22533 ft 343 kts 322°
2026-04-26 19:52 -25.00396 -64.93681 22111 ft 341 kts 322°
2026-04-26 19:52 -24.98357 -64.95004 21719 ft 339 kts 322°
2026-04-26 19:52 -24.96334 -64.96303 21330 ft 336 kts 323°
2026-04-26 19:52 -24.94313 -64.97591 20945 ft 334 kts 323°
2026-04-26 19:53 -24.92330 -64.98848 20571 ft 332 kts 324°
2026-04-26 19:53 -24.90327 -65.00114 20179 ft 331 kts 324°
2026-04-26 19:53 -24.88311 -65.01389 19572 ft 338 kts 324°
2026-04-26 19:53 -24.86261 -65.02682 19072 ft 340 kts 325°
2026-04-26 19:54 -24.84209 -65.03973 18712 ft 339 kts 326°
2026-04-26 19:54 -24.82169 -65.05256 18367 ft 336 kts 326°
2026-04-26 19:54 -24.80141 -65.06531 17954 ft 335 kts 326°
2026-04-26 19:54 -24.78120 -65.07801 17520 ft 334 kts 326°
2026-04-26 19:55 -24.76108 -65.09065 17123 ft 332 kts 327°
2026-04-26 19:55 -24.74103 -65.10325 16703 ft 331 kts 327°
2026-04-26 19:55 -24.72129 -65.11564 16309 ft 330 kts 327°
2026-04-26 19:55 -24.70138 -65.12813 15928 ft 329 kts 328°
2026-04-26 19:56 -24.68154 -65.14058 15543 ft 328 kts 328°
2026-04-26 19:56 -24.66176 -65.15299 15182 ft 327 kts 328°
2026-04-26 19:56 -24.64205 -65.16535 14801 ft 326 kts 329°
2026-04-26 19:56 -24.62238 -65.17768 14454 ft 325 kts 329°
2026-04-26 19:57 -24.60278 -65.18996 14089 ft 324 kts 329°
2026-04-26 19:57 -24.58349 -65.20205 13732 ft 323 kts 329°
2026-04-26 19:57 -24.56405 -65.21422 13348 ft 320 kts 329°
2026-04-26 19:57 -24.54475 -65.22629 12987 ft 318 kts 329°
2026-04-26 19:58 -24.52575 -65.23818 12837 ft 309 kts 329°
2026-04-26 19:58 -24.50737 -65.24967 12744 ft 299 kts 329°
2026-04-26 19:58 -24.48955 -65.26082 12560 ft 292 kts 329°
2026-04-26 19:58 -24.47198 -65.27181 12265 ft 290 kts 329°
2026-04-26 19:59 -24.45440 -65.28280 11921 ft 291 kts 329°
2026-04-26 19:59 -24.43682 -65.29378 11613 ft 290 kts 329°
2026-04-26 19:59 -24.41954 -65.30458 11333 ft 289 kts 329°
2026-04-26 19:59 -24.40211 -65.31546 11106 ft 286 kts 329°
2026-04-26 20:00 -24.38511 -65.32607 11017 ft 277 kts 329°
2026-04-26 20:00 -24.36858 -65.33637 10878 ft 270 kts 329°
2026-04-26 20:00 -24.35168 -65.34484 10737 ft 265 kts 341°
2026-04-26 20:00 -24.33405 -65.35046 10521 ft 263 kts 344°
2026-04-26 20:01 -24.31633 -65.35563 10258 ft 264 kts 344°
2026-04-26 20:01 -24.29865 -65.36092 10011 ft 263 kts 344°
2026-04-26 20:01 -24.28132 -65.36630 9735 ft 262 kts 343°
2026-04-26 20:01 -24.26377 -65.37182 9469 ft 262 kts 343°
2026-04-26 20:02 -24.24633 -65.37735 9212 ft 260 kts 343°
2026-04-26 20:02 -24.22873 -65.38173 8944 ft 260 kts 359°
2026-04-26 20:02 -24.21148 -65.37692 8660 ft 258 kts 32°
2026-04-26 20:02 -24.20250 -65.36854 8471 ft 256 kts 52°
2026-04-26 20:03 -24.19255 -65.34525 8301 ft 254 kts 76°
2026-04-26 20:03 -24.18854 -65.32661 8253 ft 248 kts 78°
2026-04-26 20:03 -24.18636 -65.30861 8218 ft 237 kts 97°
2026-04-26 20:03 -24.19060 -65.29160 8009 ft 232 kts 116°
2026-04-26 20:04 -24.19819 -65.27646 7747 ft 222 kts 121°
2026-04-26 20:04 -24.20598 -65.26208 7438 ft 216 kts 121°
2026-04-26 20:04 -24.21352 -65.24805 7175 ft 211 kts 121°
2026-04-26 20:04 -24.22081 -65.23429 6915 ft 207 kts 121°
2026-04-26 20:05 -24.22910 -65.22136 6577 ft 207 kts 129°
2026-04-26 20:05 -24.23825 -65.20959 6252 ft 205 kts 131°
2026-04-26 20:05 -24.24755 -65.19779 5932 ft 204 kts 130°
2026-04-26 20:05 -24.25673 -65.18602 5593 ft 202 kts 130°
2026-04-26 20:06 -24.26688 -65.17602 5265 ft 193 kts 149°
2026-04-26 20:06 -24.27828 -65.16908 5015 ft 183 kts 150°
2026-04-26 20:06 -24.28895 -65.16255 4969 ft 171 kts 149°
2026-04-26 20:06 -24.29900 -65.15633 4897 ft 161 kts 149°
2026-04-26 20:07 -24.30864 -65.15035 4804 ft 161 kts 149°
2026-04-26 20:07 -24.31845 -65.14427 4565 ft 161 kts 150°
2026-04-26 20:07 -24.32817 -65.13823 4315 ft 159 kts 149°
2026-04-26 20:07 -24.33760 -65.13235 4110 ft 159 kts 149°
2026-04-26 20:08 -24.34725 -65.12635 3888 ft 160 kts 150°
2026-04-26 20:08 -24.35706 -65.12039 3648 ft 161 kts 149°
2026-04-26 20:08 -24.36680 -65.11413 3384 ft 163 kts 149°
2026-04-26 20:08 -24.37658 -65.10799 3171 ft 160 kts 149°
2026-04-26 20:09 -24.38600 -65.10203 3055 ft 147 kts 149°
2026-04-26 20:09 -24.39336 -65.09742 3047 ft 91 kts 150°
2026-04-26 20:09 -24.39713 -65.09505 3045 ft 45 kts 150°
2026-04-26 20:09 -24.39931 -65.09370 3044 ft 26 kts 150°
2026-04-26 20:10 -24.40045 -65.09282 3041 ft 16 kts 158°
2026-04-26 20:10 -24.40034 -65.09308 3041 ft 7 kts 339°
2026-04-26 20:10 -24.39973 -65.09343 3043 ft 13 kts 330°
2026-04-26 20:10 -24.39892 -65.09394 3045 ft 13 kts 330°
2026-04-26 20:11 -24.39814 -65.09443 3045 ft 13 kts 330°
2026-04-26 20:11 -24.39738 -65.09490 3045 ft 12 kts 330°
2026-04-26 20:11 -24.39663 -65.09537 3042 ft 12 kts 329°
2026-04-26 20:12 -24.39504 -65.09636 3046 ft 15 kts 330°
2026-04-26 20:12 -24.39409 -65.09695 3048 ft 15 kts 330°
2026-04-26 20:12 -24.39318 -65.09752 3048 ft 15 kts 330°
2026-04-26 20:12 -24.39231 -65.09807 3048 ft 14 kts 332°
2026-04-26 20:13 -24.39139 -65.09839 3051 ft 14 kts 343°
2026-04-26 20:13 -24.39032 -65.09854 3052 ft 18 kts
2026-04-26 20:13 -24.38919 -65.09806 3048 ft 20 kts 59°
2026-04-26 20:13 -24.38840 -65.09658 3034 ft 27 kts 60°
2026-04-26 20:14 -24.38761 -65.09505 3012 ft 15 kts 61°
2026-04-26 20:14 -24.38666 -65.09487 3004 ft 17 kts 328°
2026-04-26 20:14 -24.38601 -65.09529 3006 ft 7 kts 333°
2026-04-26 20:14 -24.38582 -65.09492 3002 ft 8 kts 92°
2026-04-26 20:15 -24.38582 -65.09487 3002 ft 0 kts 92°